Blythe, CA

5:27 AM PDT on May 27, 2017 (GMT -0700)
Blythe

Weather History for KBLH - December, 2012

Change the Weather History Date:

Wednesday, December 5, 2012

  Actual Average Record
Temperature  
Mean Temperature 64 °F -  
Max Temperature 77 °F 66 °F 79 °F (1979)
Min Temperature 51 °F 42 °F 33 °F (2006)
Degree Days  
Heating Degree Days 1    
Growing Degree Days 14 (Base 50)    
Moisture  
Dew Point 42 °F    
Average Humidity 47    
Maximum Humidity 64    
Minimum Humidity 30    
Precipitation  
Precipitation 0.00 in - - ()
Sea Level Pressure  
Sea Level Pressure 30.01 in    
Wind  
Wind Speed 3 mph (WNW)    
Max Wind Speed 8 mph    
Max Gust Speed -    
Visibility 10 miles    
Events      
Averages and records for this station are not official NWS values.
T = Trace of Precipitation, MM = Missing Value Source: NWS Daily Summary

Daily Weather History Graph

Daily Weather History Graph

Search for Another Location

Airport or City:

Trip Planner

Search our weather history database for the weather conditions in past years. The results will help you decide how hot, cold, wet, or windy it might be!

Date:

Astronomy

Dec. 05, 2012 Rise Set
Actual Time 6:29 AM PST 4:30 PM PST
Civil Twilight 6:01 AM PST 4:57 PM PST
Nautical Twilight 5:30 AM PST 5:28 PM PST
Astronomical Twilight 5:00 AM PST 5:58 PM PST
Moon 11:09 PM PST (12/5) 11:07 AM PST (12/5)
Length of Visible Light 10h 56m
Length of Day
10h 01m
Waning Gibbous, 58% of the Moon is Illuminated
Dec 5
Waning Gibbous
Dec 6
Last Quarter
Dec 13
New
Dec 19
First Quarter
Dec 28
Full

Hourly Weather History & Observations

Time (PST) Temp. Dew Point Humidity Pressure Visibility Wind Dir Wind Speed Gust Speed Precip Events Conditions
12:52 AM 61.0 °F 42.1 °F 50% 30.11 in 10.0 mi WSW 3.5 mph - N/A   Clear
1:52 AM 57.0 °F 41.0 °F 55% 30.10 in 10.0 mi Calm Calm - N/A   Clear
2:52 AM 57.0 °F 41.0 °F 55% 30.09 in 10.0 mi WSW 8.1 mph - N/A   Clear
3:52 AM 55.0 °F 41.0 °F 59% 30.07 in 10.0 mi West 5.8 mph - N/A   Clear
4:52 AM 51.1 °F 37.9 °F 61% 30.07 in 10.0 mi North 6.9 mph - N/A   Clear
6:52 AM 53.1 °F 41.0 °F 64% 30.09 in 10.0 mi West 4.6 mph - N/A   Clear
7:52 AM 57.9 °F 42.1 °F 56% 30.10 in 10.0 mi Calm Calm - N/A   Clear
8:52 AM 62.1 °F 42.1 °F 48% 30.10 in 10.0 mi Calm Calm - N/A   Clear
9:52 AM 64.9 °F 43.0 °F 45% 30.10 in 10.0 mi Calm Calm - N/A   Clear
10:52 AM 69.1 °F 43.0 °F 39% 30.06 in 10.0 mi SSW 3.5 mph - N/A   Clear
11:52 AM 72.0 °F 45.0 °F 38% 30.02 in 10.0 mi Variable 3.5 mph - N/A   Clear
12:52 PM 73.9 °F 44.1 °F 34% 29.99 in 10.0 mi Calm Calm - N/A   Clear
1:52 PM 75.9 °F 43.0 °F 31% 29.96 in 10.0 mi Calm Calm - N/A   Clear
2:52 PM 77.0 °F 43.0 °F 30% 29.95 in 10.0 mi Calm Calm - N/A   Clear
3:52 PM 75.9 °F 44.1 °F 32% 29.93 in 10.0 mi Calm Calm - N/A   Clear
4:52 PM 71.1 °F 46.0 °F 41% 29.93 in 10.0 mi Calm Calm - N/A   Clear
5:52 PM 66.0 °F 44.1 °F 45% 29.93 in 10.0 mi Calm Calm - N/A   Clear
6:52 PM 64.9 °F 45.0 °F 48% 29.93 in 10.0 mi WSW 3.5 mph - N/A   Clear
7:52 PM 62.1 °F 44.1 °F 52% 29.94 in 10.0 mi Calm Calm - N/A   Clear
8:52 PM 59.0 °F 39.0 °F 48% 29.93 in 10.0 mi NNW 6.9 mph - N/A   Clear
9:52 PM 57.0 °F 37.9 °F 49% 29.93 in 10.0 mi North 6.9 mph - N/A   Clear
10:52 PM 57.0 °F 39.0 °F 51% 29.93 in 10.0 mi NNW 6.9 mph - N/A   Clear
11:52 PM 55.9 °F 37.9 °F 51% 29.91 in 10.0 mi NW 4.6 mph - N/A   Clear